EW8148 Weather Reports


time (UTC)temp
F
wind
direction
speed
knots
gust
knots
rain 1hr
in
rain 24hr
in
rain mn
in
humidity
%
barometer
mb
20260508071433 51 242 0.0 0.9 0.00 0.00 0.00 81 1016.0
20260508070933 51 242 0.0 0.9 0.00 0.00 0.00 81 1015.9
20260508070435 51 242 0.0 1.7 0.00 0.00 0.00 81 1015.9
20260508065930 51 243 0.0 1.7 0.00 0.00 0.00 81 1016.0
20260508065429 51 234 0.0 0.9 0.00 0.00 0.00 81 1016.1
20260508064930 51 234 0.0 0.9 0.00 0.00 0.00 81 1016.2
20260508064428 51 234 0.0 0.0 0.00 0.00 0.00 81 1016.2
20260508064051 51 234 0.0 1.7 0.00 0.00 0.00 82 1016.1
20260508063934 51 234 0.0 1.7 0.00 0.00 0.00 81 1016.1
20260508063930 51 234 0.0 0.9 0.00 0.00 0.00 81 1016.1
20260508062424 51 234 0.0 0.9 0.00 0.00 0.00 82 1016.1
20260508061922 51 234 0.0 0.0 0.00 0.00 0.00 81 1016.1
20260508061422 51 234 0.0 0.9 0.00 0.00 0.00 81 1016.0
20260508060923 51 234 0.0 0.9 0.00 0.00 0.00 81 1016.1
20260508060421 51 236 0.0 0.9 0.00 0.00 0.00 81 1016.0
20260508055929 51 231 0.0 0.0 0.00 0.00 0.00 79 1016.0
20260508055922 51 230 0.0 0.9 0.00 0.00 0.00 81 1016.0
20260508055421 51 230 0.0 0.0 0.00 0.00 0.00 81 1016.0
20260508054921 51 231 0.0 0.0 0.00 0.00 0.00 81 1016.0
20260508053921 52 231 0.0 0.0 0.00 0.00 0.00 80 1016.1
20260508053418 52 231 0.0 0.9 0.00 0.00 0.00 79 1016.2
20260508052919 52 231 0.0 0.9 0.00 0.00 0.00 79 1016.2
20260508052418 52 231 0.0 0.0 0.00 0.00 0.00 79 1016.2
20260508051918 53 231 0.0 0.0 0.00 0.00 0.00 79 1016.2
20260508051418 53 231 0.0 0.9 0.00 0.00 0.00 78 1016.2
20260508050925 53 231 0.0 0.0 0.00 0.00 0.00 78 1016.2
20260508050919 53 231 0.0 0.9 0.00 0.00 0.00 78 1016.2
20260508045919 53 231 0.0 0.9 0.00 0.00 0.00 77 1016.3
20260508045417 53 231 0.9 1.7 0.00 0.00 0.00 76 1016.2
20260508044918 53 230 0.9 1.7 0.00 0.00 0.00 76 1016.1
20260508044420 53 56 0.0 0.9 0.00 0.00 0.00 76 1016.0
20260508044415 53 56 0.0 0.9 0.00 0.00 0.00 76 1016.1
20260508043415 53 56 0.0 0.0 0.00 0.00 0.00 76 1016.1
20260508042915 54 56 0.0 0.9 0.00 0.00 0.00 75 1016.1
20260508042416 54 56 0.0 0.9 0.00 0.00 0.00 75 1016.2
20260508041916 54 56 0.0 0.9 0.00 0.00 0.00 74 1016.2
20260508041416 54 56 0.0 0.9 0.00 0.00 0.00 73 1016.1
20260508040914 55 56 0.0 0.9 0.00 0.00 0.00 73 1016.0
20260508040412 55 56 0.0 0.9 0.00 0.00 0.00 72 1016.0
20260508035912 55 56 0.0 0.9 0.00 0.00 0.00 71 1016.0
20260508035413 55 56 0.0 0.9 0.00 0.00 0.00 71 1016.0
20260508034913 56 56 0.0 0.9 0.00 0.00 0.00 70 1016.0
20260508034412 56 56 0.0 0.9 0.00 0.00 0.00 70 1016.0
20260508033914 56 56 0.0 0.9 0.00 0.00 0.00 69 1015.9
20260508033414 57 56 0.0 0.9 0.00 0.00 0.00 68 1015.9
20260508032917 57 56 0.0 0.9 0.00 0.00 0.00 67 1015.9
20260508032911 57 56 0.0 0.9 0.00 0.00 0.00 67 1015.8
20260508031910 58 56 0.0 0.9 0.00 0.00 0.00 67 1015.8
20260508031411 58 56 0.0 0.9 0.00 0.00 0.00 66 1015.8
20260508030915 59 56 0.0 1.7 0.00 0.00 0.00 64 1015.8
20260508030911 59 56 0.0 0.9 0.00 0.00 0.00 65 1015.9
20260508025912 59 56 0.0 1.7 0.00 0.00 0.00 62 1015.9
20260508025410 60 80 0.9 1.7 0.00 0.00 0.00 62 1015.9
20260508024911 60 80 0.9 1.7 0.00 0.00 0.00 61 1015.8
20260508024411 60 46 0.0 2.6 0.00 0.00 0.00 61 1015.8
20260508023911 60 55 0.0 2.6 0.00 0.00 0.00 61 1015.9
20260508023415 62 110 0.0 0.9 0.00 0.00 0.00 59 1016.0
20260508023409 61 7 0.0 1.7 0.00 0.00 0.00 60 1015.9
20260508022909 61 7 0.0 1.7 0.00 0.00 0.00 59 1015.9
20260508021913 62 110 0.0 0.9 0.00 0.00 0.00 58 1016.0
20260508021908 62 110 0.0 0.9 0.00 0.00 0.00 58 1016.0
20260508020910 62 110 0.0 0.9 0.00 0.00 0.00 56 1016.1
20260508020410 63 110 0.0 0.9 0.00 0.00 0.00 53 1016.2
20260508015908 63 110 0.0 0.9 0.00 0.00 0.00 54 1016.1
20260508015408 63 110 0.9 3.5 0.00 0.00 0.00 53 1016.2
20260508014913 64 57 0.9 3.5 0.00 0.00 0.00 52 1016.2
20260508014908 63 91 0.9 3.5 0.00 0.00 0.00 52 1016.1
20260508014407 63 54 0.9 3.5 0.00 0.00 0.00 52 1016.1
20260508013407 64 31 0.9 3.5 0.00 0.00 0.00 50 1016.1
20260508012907 64 53 0.9 1.7 0.00 0.00 0.00 52 1016.2
20260508012407 64 91 0.9 1.7 0.00 0.00 0.00 51 1016.4
20260508011907 65 187 0.0 1.7 0.00 0.00 0.00 50 1016.3
20260508011409 65 276 0.0 0.9 0.00 0.00 0.00 51 1016.5
20260508010909 64 276 0.0 0.9 0.00 0.00 0.00 52 1016.5
20260508010905 64 276 0.9 2.6 0.00 0.00 0.00 52 1016.6
20260508005905 65 276 0.0 2.6 0.00 0.00 0.00 50 1016.7
20260508005403 66 73 0.0 1.7 0.00 0.00 0.00 51 1016.7
20260508004902 65 73 0.0 1.7 0.00 0.00 0.00 51 1016.7
20260508004401 65 72 0.9 2.6 0.00 0.00 0.00 51 1016.7
20260508003901 65 67 0.9 2.6 0.00 0.00 0.00 49 1016.7
20260508003404 66 281 0.9 2.6 0.00 0.00 0.00 48 1016.8
20260508003400 66 46 0.9 2.6 0.00 0.00 0.00 48 1016.8
20260508002400 66 316 0.9 2.6 0.00 0.00 0.00 51 1016.8
20260508001901 66 252 0.9 3.5 0.00 0.00 0.00 53 1016.8
20260508001359 65 176 1.7 3.5 0.00 0.00 0.00 51 1016.9
20260508000900 65 273 1.7 3.5 0.00 0.00 0.00 51 1016.9
20260508000359 65 210 1.7 4.3 0.00 0.00 0.00 51 1016.9
20260507235856 65 162 1.7 4.3 0.00 0.00 0.00 50 1016.9
20260507235358 65 185 1.7 4.3 0.00 0.00 0.00 50 1017.1
20260507234857 65 193 1.7 3.5 0.00 0.00 0.00 51 1017.1
20260507234359 65 142 1.7 4.3 0.00 0.00 0.00 52 1017.2
20260507233854 64 170 1.7 6.1 0.00 0.00 0.00 50 1017.1
20260507233355 64 202 2.6 6.1 0.00 0.00 0.00 54 1017.1
20260507232854 63 129 2.6 6.1 0.00 0.00 0.00 52 1017.2
20260507232355 63 274 2.6 6.1 0.00 0.00 0.00 52 1017.2
20260507231855 63 126 1.7 5.2 0.00 0.00 0.00 53 1017.3
20260507231355 63 160 2.6 6.1 0.00 0.00 0.00 53 1017.4
20260507230855 62 121 3.5 6.1 0.00 0.00 0.00 53 1017.4
20260507230353 63 160 3.5 6.1 0.00 0.00 0.00 53 1017.5
20260507225853 63 125 2.6 7.8 0.00 0.00 0.00 53 1017.6
20260507225355 63 119 2.6 7.8 0.00 0.00 0.00 52 1017.6
20260507224854 63 187 2.6 6.1 0.00 0.00 0.00 54 1017.7
20260507224401 63 200 1.7 7.0 0.00 0.00 0.00 53 1017.8
20260507224355 63 154 2.6 7.0 0.00 0.00 0.00 54 1017.6
20260507223357 63 76 1.7 4.3 0.00 0.00 0.00 53 1017.8
20260507222854 63 268 2.6 5.2 0.00 0.00 0.00 52 1017.8
20260507222354 62 200 3.5 7.0 0.00 0.00 0.00 53 1017.9
20260507221853 63 139 2.6 7.0 0.00 0.00 0.00 51 1017.9
20260507221353 64 204 1.7 6.1 0.00 0.00 0.00 53 1018.0
20260507220900 63 212 1.7 6.1 0.00 0.00 0.00 54 1018.1
20260507220855 63 128 0.9 4.3 0.00 0.00 0.00 52 1018.0
20260507215855 62 11 2.6 6.1 0.00 0.00 0.00 54 1018.2
20260507215353 62 261 2.6 5.2 0.00 0.00 0.00 54 1018.2
20260507214853 62 237 2.6 6.1 0.00 0.00 0.00 55 1018.3
20260507214354 62 262 1.7 6.1 0.00 0.00 0.00 52 1018.4
20260507213854 63 192 2.6 7.0 0.00 0.00 0.00 56 1018.4
20260507213353 62 188 2.6 7.0 0.00 0.00 0.00 54 1018.4
20260507212859 62 120 2.6 7.8 0.00 0.00 0.00 55 1018.6
20260507212854 63 142 2.6 5.2 0.00 0.00 0.00 56 1018.4
20260507211901 62 167 2.6 7.8 0.00 0.00 0.00 54 1018.7
20260507211856 62 118 2.6 7.8 0.00 0.00 0.00 53 1018.7
20260507210855 62 131 2.6 7.8 0.00 0.00 0.00 55 1018.7
20260507210355 62 180 1.7 5.2 0.00 0.00 0.00 54 1018.7
20260507205859 62 247 2.6 7.0 0.00 0.00 0.00 54 1018.8
20260507205854 61 83 2.6 5.2 0.00 0.00 0.00 55 1018.7
20260507204853 62 229 2.6 7.0 0.00 0.00 0.00 52 1018.8
20260507204351 63 102 2.6 6.1 0.00 0.00 0.00 54 1018.9
20260507203852 62 149 2.6 7.0 0.00 0.00 0.00 53 1019.0
20260507203352 62 184 2.6 7.0 0.00 0.00 0.00 54 1019.0
20260507202857 61 120 2.6 7.0 0.00 0.00 0.00 55 1019.1
20260507202851 62 173 2.6 6.1 0.00 0.00 0.00 54 1019.1
20260507201851 61 118 2.6 7.0 0.00 0.00 0.00 55 1019.1
20260507201351 61 147 2.6 6.1 0.00 0.00 0.00 55 1019.2
20260507200854 60 120 3.5 7.8 0.00 0.00 0.00 59 1019.3
20260507200353 59 105 3.5 7.8 0.00 0.00 0.00 59 1019.3
20260507195852 59 116 2.6 7.0 0.00 0.00 0.00 58 1019.4
20260507195353 60 146 1.7 6.1 0.00 0.00 0.00 58 1019.4
20260507194852 60 240 2.6 6.1 0.00 0.00 0.00 59 1019.4
20260507194352 59 134 2.6 6.1 0.00 0.00 0.00 60 1019.5
20260507193849 59 157 2.6 6.1 0.00 0.00 0.00 60 1019.5
20260507193348 58 301 1.7 4.3 0.00 0.00 0.00 60 1019.4
20260507192847 59 310 1.7 4.3 0.00 0.00 0.00 59 1019.5
20260507192353 59 105 1.7 5.2 0.00 0.00 0.00 59 1019.5
20260507192348 60 327 1.7 5.2 0.00 0.00 0.00 60 1019.5
20260507191347 59 319 1.7 5.2 0.00 0.00 0.00 59 1019.5
20260507190847 58 128 2.6 4.3 0.00 0.00 0.00 62 1019.6
20260507190347 58 115 2.6 5.2 0.00 0.00 0.00 61 1019.7
20260507185845 58 191 2.6 5.2 0.00 0.00 0.00 60 1019.6
20260507185353 58 346 2.6 5.2 0.00 0.00 0.00 61 1019.8
20260507185346 59 167 2.6 7.8 0.00 0.00 0.00 63 1019.6
20260507184847 58 145 2.6 7.8 0.00 0.00 0.00 61 1019.7
20260507183845 58 158 2.6 6.1 0.00 0.00 0.00 64 1019.8
20260507183347 58 168 2.6 6.1 0.00 0.00 0.00 61 1019.8
20260507182845 58 195 1.7 4.3 0.00 0.00 0.00 62 1019.7
20260507182350 57 184 1.7 5.2 0.00 0.00 0.00 64 1019.9
20260507182345 57 15 1.7 5.2 0.00 0.00 0.00 64 1019.8
20260507181506 57 89 1.7 6.1 0.00 0.00 0.00 65 1019.9
20260507181349 57 121 2.6 7.0 0.00 0.00 0.00 64 1020.1
20260507181343 57 224 2.6 7.0 0.00 0.00 0.00 66 1020.1
20260507175844 56 303 1.7 6.1 0.00 0.00 0.00 65 1020.1
20260507175346 56 139 1.7 5.2 0.00 0.00 0.00 66 1020.1
20260507174845 56 168 1.7 5.2 0.00 0.00 0.00 66 1020.1
20260507174344 56 149 2.6 5.2 0.00 0.00 0.00 67 1020.2
20260507173841 55 193 2.6 5.2 0.00 0.00 0.00 68 1020.1
20260507173343 55 231 2.6 6.1 0.00 0.00 0.00 68 1020.2
20260507172842 56 153 1.7 6.1 0.00 0.00 0.00 67 1020.2
20260507172343 56 293 1.7 4.3 0.00 0.00 0.00 67 1020.2
20260507171842 56 234 1.7 4.3 0.00 0.00 0.00 67 1020.2
20260507171350 55 255 1.7 4.3 0.00 0.00 0.00 69 1020.2
20260507171344 56 217 1.7 4.3 0.00 0.00 0.00 69 1020.3
20260507170343 55 311 1.7 7.0 0.00 0.00 0.00 70 1020.2
20260507165841 54 106 2.6 7.0 0.00 0.00 0.00 69 1020.2
20260507165340 55 116 1.7 4.3 0.00 0.00 0.00 70 1020.2
20260507164839 54 217 2.6 4.3 0.00 0.00 0.00 70 1020.2
20260507164339 54 104 2.6 5.2 0.00 0.00 0.00 71 1020.2
20260507163840 54 173 1.7 5.2 0.00 0.00 0.00 71 1020.3
20260507163340 54 125 1.7 5.2 0.00 0.00 0.00 70 1020.3
20260507162840 54 203 1.7 6.1 0.00 0.00 0.00 73 1020.2
20260507162336 53 109 1.7 6.1 0.00 0.00 0.00 70 1020.2
20260507161837 53 172 1.7 5.2 0.00 0.00 0.00 72 1020.3
20260507161343 52 161 1.7 5.2 0.00 0.00 0.00 73 1020.3
20260507161337 52 257 1.7 5.2 0.00 0.00 0.00 73 1020.3
20260507160334 52 153 1.7 3.5 0.00 0.00 0.00 74 1020.3
20260507155834 52 129 1.7 6.1 0.00 0.00 0.00 74 1020.3
20260507155335 52 161 1.7 6.1 0.00 0.00 0.00 73 1020.3
20260507154836 52 27 1.7 4.3 0.00 0.00 0.00 75 1020.3
20260507154339 51 238 1.7 5.2 0.00 0.00 0.00 75 1020.3
20260507154333 51 201 2.6 5.2 0.00 0.00 0.00 75 1020.4
20260507153333 51 169 1.7 5.2 0.00 0.00 0.00 75 1020.4
20260507152838 51 146 0.9 4.3 0.00 0.00 0.00 76 1020.4
20260507152832 52 205 0.9 4.3 0.00 0.00 0.00 75 1020.4
20260507151833 51 173 1.7 4.3 0.00 0.00 0.00 77 1020.4
20260507151333 51 75 0.9 3.5 0.00 0.00 0.00 77 1020.4
20260507150833 51 215 0.9 3.5 0.00 0.00 0.00 78 1020.4
20260507150338 50 177 1.7 4.3 0.00 0.00 0.00 79 1020.5
20260507150334 50 79 0.9 3.5 0.00 0.00 0.00 78 1020.5
20260507145955 50 32 0.0 1.7 0.00 0.00 0.00 79 1020.4
20260507145334 50 118 0.9 4.3 0.00 0.00 0.00 78 1020.5
20260507144332 50 32 0.0 1.7 0.00 0.00 0.00 79 1020.4
20260507143832 50 225 0.9 2.6 0.00 0.00 0.00 79 1020.5
20260507143332 50 286 0.9 2.6 0.00 0.00 0.00 79 1020.4
20260507142831 50 276 0.9 2.6 0.00 0.00 0.00 80 1020.4
20260507142331 49 274 0.9 2.6 0.00 0.00 0.00 80 1020.4
20260507141832 49 229 0.9 2.6 0.00 0.00 0.00 80 1020.4
20260507141332 49 302 0.9 2.6 0.00 0.00 0.00 81 1020.4
20260507140830 49 214 0.0 0.9 0.00 0.00 0.00 81 1020.4
20260507140332 49 167 0.0 0.9 0.00 0.00 0.00 81 1020.3
20260507135829 49 307 0.0 1.7 0.00 0.00 0.00 81 1020.3
20260507135329 49 54 0.0 2.6 0.00 0.00 0.00 82 1020.2
20260507134829 49 214 0.0 2.6 0.00 0.00 0.00 82 1020.2
20260507134329 49 151 0.0 1.7 0.00 0.00 0.00 82 1020.1
20260507133830 49 187 0.0 0.0 0.00 0.00 0.00 82 1020.1
20260507133330 49 187 0.0 0.0 0.00 0.00 0.00 82 1020.1
20260507132833 49 169 0.0 0.0 0.00 0.00 0.00 82 1020.1
20260507132829 49 187 0.0 0.0 0.00 0.00 0.00 82 1020.2
20260507131831 49 173 0.0 0.0 0.00 0.00 0.00 82 1020.2
20260507131329 49 169 0.0 0.9 0.00 0.00 0.00 82 1020.1
20260507130830 49 131 0.9 3.5 0.00 0.00 0.00 82 1019.9
20260507130334 49 276 0.9 3.5 0.00 0.00 0.00 82 1019.8
20260507130328 49 209 0.9 3.5 0.00 0.00 0.00 82 1019.9
20260507125337 49 226 0.0 1.7 0.00 0.00 0.00 82 1020.1
20260507125329 49 124 0.0 2.6 0.00 0.00 0.00 82 1019.9
20260507124829 49 233 0.0 1.7 0.00 0.00 0.00 82 1019.9
20260507124328 49 232 0.0 1.7 0.00 0.00 0.00 82 1019.9
20260507123830 49 262 0.9 1.7 0.00 0.00 0.00 82 1020.1
20260507122831 49 299 0.0 2.6 0.00 0.00 0.00 82 1020.1
20260507122328 49 239 0.9 2.6 0.00 0.00 0.00 82 1020.1
20260507121830 49 252 0.0 1.7 0.00 0.00 0.00 82 1020.1
20260507121328 49 109 0.0 0.9 0.00 0.00 0.00 82 1020.1
20260507120834 49 278 0.9 1.7 0.00 0.00 0.00 82 1020.3
20260507120828 49 278 0.0 1.7 0.00 0.00 0.00 82 1020.2
20260507115829 49 251 0.9 3.5 0.00 0.00 0.00 82 1020.2
20260507115329 50 320 0.9 3.5 0.00 0.00 0.00 82 1020.2
20260507114828 50 121 0.0 1.7 0.00 0.00 0.00 82 1020.3
20260507114325 50 171 0.0 2.6 0.00 0.00 0.00 82 1020.2
20260507113824 50 117 0.0 2.6 0.00 0.00 0.00 82 1020.3
20260507113324 50 4 0.0 2.6 0.00 0.00 0.00 82 1020.4
20260507112826 50 201 0.0 1.7 0.00 0.00 0.00 82 1020.4
20260507112326 50 152 0.0 0.9 0.00 0.00 0.00 82 1020.4
20260507111825 50 169 0.0 1.7 0.00 0.00 0.00 82 1020.5
20260507111325 50 121 0.9 4.3 0.00 0.00 0.00 82 1020.5
20260507110830 50 230 0.0 0.0 0.00 0.00 0.00 83 1020.5
20260507110826 50 127 0.9 4.3 0.00 0.00 0.00 83 1020.4
20260507105823 50 191 0.0 2.6 0.00 0.00 0.00 83 1020.5
20260507105320 50 128 0.0 2.6 0.00 0.00 0.00 83 1020.5
20260507104828 50 255 0.0 1.7 0.00 0.00 0.00 84 1020.5
20260507104822 50 255 0.0 0.9 0.00 0.00 0.00 84 1020.5
20260507103821 50 256 0.0 1.7 0.00 0.00 0.00 83 1020.5
20260507103318 50 5 0.0 1.7 0.00 0.00 0.00 83 1020.5
20260507102821 50 251 0.9 2.6 0.00 0.00 0.00 83 1020.5
20260507102817 50 251 0.9 2.6 0.00 0.00 0.00 83 1020.5
20260507102437 50 227 0.0 2.6 0.00 0.00 0.00 83 1020.5
20260507101317 50 166 0.0 1.7 0.00 0.00 0.00 83 1020.6
20260507100816 50 166 0.9 2.6 0.00 0.00 0.00 83 1020.6
20260507100314 51 115 0.9 2.6 0.00 0.00 0.00 83 1020.5
20260507095814 51 165 0.9 3.5 0.00 0.00 0.00 83 1020.5
20260507095314 51 48 0.9 3.5 0.00 0.00 0.00 83 1020.5
20260507094816 51 309 1.7 4.3 0.00 0.00 0.00 83 1020.4
20260507094315 51 217 0.9 4.3 0.00 0.00 0.00 83 1020.4
20260507093814 51 153 0.9 3.5 0.00 0.00 0.00 83 1020.4
20260507093314 51 300 0.0 2.6 0.00 0.00 0.00 83 1020.5
20260507092812 51 326 0.9 3.5 0.00 0.00 0.00 83 1020.4
20260507092312 51 327 1.7 6.1 0.00 0.00 0.00 83 1020.5
20260507091811 51 285 1.7 6.1 0.00 0.00 0.00 83 1020.4
20260507091311 51 259 0.9 6.1 0.00 0.00 0.00 82 1020.5
20260507090811 51 173 0.9 6.1 0.00 0.00 0.00 82 1020.5
20260507090311 51 232 0.9 2.6 0.00 0.00 0.00 82 1020.5
20260507085812 51 289 0.9 3.5 0.00 0.00 0.00 82 1020.6
20260507085311 51 282 0.9 4.3 0.00 0.00 0.00 82 1020.6
20260507084811 51 59 0.9 4.3 0.00 0.00 0.00 82 1020.6
20260507084313 51 262 0.9 3.5 0.00 0.00 0.00 82 1020.6
20260507083812 51 276 0.9 4.3 0.00 0.00 0.00 81 1020.6
20260507083309 51 27 0.9 4.3 0.00 0.00 0.00 81 1020.5
20260507082810 51 323 1.7 5.2 0.00 0.00 0.00 81 1020.5
20260507082308 51 141 0.9 5.2 0.00 0.00 0.00 81 1020.5
20260507081810 51 53 0.9 3.5 0.00 0.00 0.00 80 1020.6
20260507081308 51 257 0.9 5.2 0.00 0.00 0.00 80 1020.7
20260507080809 51 138 0.9 5.2 0.00 0.00 0.00 80 1020.6
20260507080309 51 217 0.9 4.3 0.00 0.00 0.00 80 1020.5
20260507075809 51 332 0.9 4.3 0.00 0.00 0.00 81 1020.5
20260507075315 51 260 0.9 5.2 0.00 0.00 0.00 81 1020.6
20260507075309 51 356 0.9 5.2 0.00 0.00 0.00 81 1020.6
20260507074308 51 245 0.9 2.6 0.00 0.00 0.00 81 1020.6
20260507073805 51 34 0.9 3.5 0.00 0.00 0.00 81 1020.5
20260507073308 51 101 0.9 4.3 0.00 0.00 0.00 81 1020.5
20260507072807 51 212 0.9 4.3 0.00 0.00 0.00 81 1020.6
20260507072309 51 135 0.9 4.3 0.00 0.00 0.00 81 1020.6
20260507071807 51 279 0.9 4.3 0.00 0.00 0.00 81 1020.5